{"data":{"norad_id":60140,"epoch":"2026-05-24T18:54:36.875520Z","epoch_age_seconds":93062,"freshness":"FRESH","line1":"1 60140U 24120F   26144.78792680 -.00000362  00000+0 -92484-7 0  9990","line2":"2 60140  53.1606 326.7078 0001100  82.8542 277.2584 15.30193017108103","mean_motion":15.30193017,"eccentricity":0.00011,"inclination_deg":53.1606,"raan_deg":326.7078,"arg_perigee_deg":82.8542,"mean_anomaly_deg":277.2584,"bstar":-9.2484e-8,"rev_number":10810,"period_min":94.105775153985,"perigee_km":474.48204845678,"apogee_km":475.98979049906,"semimajor_km":6853.3729194779,"source":"CELESTRAK","updated_at":"2026-05-25T13:38:19.187941Z"}}